W2CJS Weather Reports


time (UTC)temp
C
wind
direction
speed
KPH
gust
KPH
rain 1hr
cm
rain 24hr
cm
rain mn
cm
humidity
%
barometer
mb
20260504050003 5 223 4.8 8.0 0.03 0.08 0.03 92 1006.9
20260504045003 5 222 4.8 9.7 0.03 0.08 0.03 91 1006.8
20260504044003 5 223 4.8 8.0 0.03 0.08 0.03 91 1007.0
20260504043003 5 218 4.8 12.9 0.05 0.08 0.03 90 1007.1
20260504042003 5 233 4.8 8.0 0.05 0.08 0.03 90 1007.0
20260504041003 4 230 4.8 9.7 0.05 0.08 0.03 90 1007.1
20260504040003 4 230 4.8 12.9 0.03 0.05 0.00 89 1007.2
20260504035003 5 228 4.8 9.7 0.05 0.05 0.05 88 1007.2
20260504034003 5 231 8.0 17.7 0.05 0.05 0.05 88 1007.4
20260504033003 5 229 6.4 12.9 0.03 0.03 0.03 87 1007.4
20260504032003 5 227 4.8 11.3 0.03 0.03 0.03 86 1007.4
20260504031003 5 233 6.4 14.5 0.03 0.03 0.03 85 1007.5
20260504030003 5 227 6.4 12.9 0.03 0.03 0.03 83 1007.7
20260504025003 5 222 6.4 14.5 0.00 0.00 0.00 81 1007.7
20260504024003 5 222 6.4 16.1 0.00 0.00 0.00 79 1007.8
20260504023003 6 225 4.8 14.5 0.00 0.00 0.00 73 1007.8
20260504022003 6 226 8.0 14.5 0.00 0.00 0.00 67 1007.8
20260504021003 6 228 8.0 20.9 0.00 0.00 0.00 65 1007.8
20260504020024 7 223 6.4 12.9 0.00 0.00 0.00 61 1007.8
20260504015003 7 224 4.8 14.5 0.00 0.00 0.00 59 1007.7
20260504014003 7 225 4.8 14.5 0.00 0.00 0.00 58 1007.7
20260504013003 7 225 8.0 22.5 0.00 0.00 0.00 57 1007.6
20260504012003 7 223 3.2 8.0 0.00 0.00 0.00 56 1007.6
20260504011003 7 259 3.2 9.7 0.00 0.00 0.00 56 1007.6
20260504010003 7 219 6.4 14.5 0.00 0.00 0.00 56 1007.6
20260504005004 7 233 6.4 19.3 0.00 0.00 0.00 53 1007.7
20260504004003 7 224 4.8 12.9 0.00 0.00 0.00 49 1007.6
20260504003003 7 223 4.8 9.7 0.00 0.00 0.00 47 1007.5
20260504002003 7 221 4.8 11.3 0.00 0.00 0.00 47 1007.5
20260504001024 7 222 4.8 8.0 0.00 0.00 0.00 48 1007.5
20260504000003 7 220 4.8 11.3 0.00 0.00 0.00 46 1007.4
20260503235003 7 226 6.4 22.5 0.00 0.00 0.00 46 1007.5
20260503234024 7 225 4.8 9.7 0.00 0.00 0.00 44 1007.3
20260503233003 7 250 3.2 8.0 0.00 0.00 0.00 43 1007.4
20260503232003 8 270 1.6 6.4 0.00 0.00 0.00 41 1007.3
20260503231003 8 249 3.2 12.9 0.00 0.00 0.00 42 1007.1
20260503230003 8 287 3.2 8.0 0.00 0.00 0.00 40 1007.0
20260503225003 8 232 4.8 16.1 0.00 0.00 0.00 42 1007.0
20260503224003 8 169 3.2 9.7 0.00 0.00 0.00 40 1007.0
20260503223024 8 308 4.8 14.5 0.00 0.00 0.00 39 1006.9
20260503222003 8 264 6.4 14.5 0.00 0.00 0.00 37 1006.9
20260503221003 8 277 4.8 12.9 0.00 0.00 0.00 35 1007.0
20260503220003 8 235 8.0 25.7 0.00 0.00 0.00 36 1006.9
20260503215003 8 237 8.0 19.3 0.00 0.00 0.00 37 1006.9
20260503214003 8 245 6.4 14.5 0.00 0.00 0.00 36 1006.8
20260503213003 8 275 6.4 20.9 0.00 0.00 0.00 35 1006.8
20260503212024 9 250 8.0 19.3 0.00 0.00 0.00 35 1006.7
20260503211003 8 235 8.0 22.5 0.00 0.00 0.00 38 1006.5
20260503210003 9 234 9.7 20.9 0.00 0.00 0.00 37 1006.5
20260503205003 9 240 6.4 14.5 0.00 0.00 0.00 39 1006.5
20260503204003 8 283 4.8 16.1 0.00 0.00 0.00 39 1006.5
20260503203024 9 217 6.4 16.1 0.00 0.00 0.00 39 1006.6
20260503202003 8 289 6.4 16.1 0.00 0.00 0.00 38 1006.5
20260503201003 8 34 4.8 16.1 0.00 0.00 0.00 44 1006.7
20260503200003 8 241 6.4 16.1 0.00 0.00 0.00 43 1006.7
20260503195003 8 230 8.0 24.1 0.00 0.00 0.00 41 1006.9
20260503194003 8 310 4.8 12.9 0.00 0.00 0.00 42 1007.2
20260503193003 7 327 4.8 17.7 0.00 0.00 0.00 45 1007.3
20260503192003 7 300 4.8 12.9 0.00 0.00 0.00 45 1007.5
20260503191003 7 234 8.0 16.1 0.00 0.00 0.00 45 1007.6
20260503190024 7 236 6.4 11.3 0.00 0.00 0.00 47 1007.8
20260503185024 7 249 6.4 16.1 0.00 0.00 0.00 47 1007.7
20260503184003 7 228 4.8 12.9 0.00 0.00 0.00 45 1007.8
20260503183003 7 253 6.4 19.3 0.00 0.00 0.00 47 1007.8
20260503182024 7 257 4.8 16.1 0.00 0.00 0.00 46 1008.0
20260503181003 7 265 6.4 16.1 0.00 0.00 0.00 46 1008.0
20260503180003 7 234 4.8 14.5 0.00 0.00 0.00 46 1008.0
20260503175003 7 239 4.8 22.5 0.00 0.00 0.00 46 1007.9
20260503174003 7 300 6.4 14.5 0.00 0.00 0.00 46 1007.9
20260503173003 7 231 6.4 14.5 0.00 0.00 0.00 46 1008.0
20260503172024 6 342 4.8 16.1 0.00 0.00 0.00 52 1008.0
20260503171003 6 12 4.8 16.1 0.00 0.00 0.00 52 1008.0
20260503151003 5 245 4.8 12.9 0.00 0.03 0.00 58 1009.0
20260503131003 3 239 3.2 6.4 0.00 0.03 0.00 72 1009.5
20260503081003 1 0 0.0 0.0 0.00 0.05 0.00 88 1009.5